Regional Weather Roundup
Issued by NWS

Home | Current Version | Previous Version | Text Only | Print | Product List | Glossary On
Versions: 1 2 3 4 5 6 7 8 9 10 11 12 13 14 15 16 17 18 19 20 21 22 23 24 25 26 27 28 29 30 31 32 33 34 35 36 37 38 39 40 41 42 43 44 45 46 47 48 49 50
000
ASCA42 TJSJ 282210
RWRPR
PUERTO RICO/U.S. VIRGIN ISLANDS HOURLY WEATHER ROUNDUP
NATIONAL WEATHER SERVICE SAN JUAN PR
600 PM AST SAT MAR 28 2015

PRZ001-004-282300-
PUERTO RICO

CITY           SKY/WX    TMP DP  RH WIND       PRES   REMARKS
SAN JUAN LMM   PTCLDY    81  70  69 E14       30.07R
MAYAGUEZ       MOCLDY    82  73  74 S7        30.09
AGUADILLA      PTCLDY    79  72  78 E10       30.07R
CEIBA          CLEAR     81  68  65 E13       30.09R
$$

PRZ006-007-282300-
U.S. VIRGIN ISLANDS

CITY           SKY/WX    TMP DP  RH WIND       PRES   REMARKS
$$

HOURLY WEATHER ROUNDUP FOR THE NEWS MEDIA

CITY           SKY/WX    TMP DP  RH WIND       PRES   REMARKS
ORLANDO        SUNNY     68  36  30 W9G18     30.10S
NEW YORK       CLOUDY    37  23  56 N18       29.91R WCI  27
NEWARK         PTSUNNY   39  14  36 NW17      29.91R WCI  30
CHICAGO        SUNNY     35   7  31 E7        30.29F WCI  29
HARTFORD       LGT SNOW  34  32  92 N6        29.82R FOG     WCI  29
BOSTON         LGT SNOW  34  31  88 N7        29.84R FOG     WCI  28
DALLAS         MOSUNNY   82  46  28 S13       29.96F
PHILADELPHIA   CLOUDY    38  10  31 NW20      29.98R WCI  28
LOS ANGELES    MOSUNNY   69  59  70 W10       30.03F
WASHINGTON DC  PTSUNNY   32   9  38 NW22G28   30.09R WCI  19



USA.gov is the U.S. government's official web portal to all federal, state and local government web resources and services.